Time,TemperatureF,DewpointF,PressureIn,WindDirection,WindDirectionDegrees,WindSpeedMPH,WindSpeedGustMPH,Humidity,HourlyPrecipIn,Conditions,Clouds,dailyrainin,SoftwareType,DateUTC
2014-02-06 00:01:00,22.4,19.1,30.22,West,259,0.0,0.0,87,0.00,,,0.05,Wunderground v.1.13,2014-02-06 05:01:00,
2014-02-06 00:02:00,22.3,19.0,30.22,West,259,0.0,0.0,87,0.00,,,0.05,Wunderground v.1.13,2014-02-06 05:02:00,
2014-02-06 00:03:00,22.3,19.0,30.22,West,259,0.0,0.0,87,0.00,,,0.05,Wunderground v.1.13,2014-02-06 05:03:00,
2014-02-06 00:04:00,21.6,18.9,30.26,N/A,-737280,0.0,0.0,89,0.00,,,0.02,Wunderground v.1.13,2014-02-06 05:04:00,
2014-02-06 00:09:00,22.3,19.0,30.22,West,259,0.0,0.0,87,0.00,,,0.05,Wunderground v.1.13,2014-02-06 05:09:00,
2014-02-06 00:14:00,21.6,18.9,30.26,West,270,0.0,4.0,89,0.00,,,0.02,Wunderground v.1.13,2014-02-06 05:14:00,
2014-02-06 00:15:00,22.3,19.0,30.22,West,259,0.0,0.0,87,0.00,,,0.05,Wunderground v.1.13,2014-02-06 05:15:00,
2014-02-06 00:19:00,21.6,18.9,30.26,N/A,-737280,0.0,0.0,89,0.00,,,0.02,Wunderground v.1.13,2014-02-06 05:19:00,
2014-02-06 00:20:00,22.3,19.0,30.22,West,259,0.0,0.0,87,0.00,,,0.05,Wunderground v.1.13,2014-02-06 05:20:00,
2014-02-06 00:24:00,21.6,18.9,30.26,N/A,-737280,0.0,0.0,89,0.00,,,0.02,Wunderground v.1.13,2014-02-06 05:24:00,
2014-02-06 00:26:00,22.2,19.2,30.22,West,259,0.0,2.0,88,0.00,,,0.05,Wunderground v.1.13,2014-02-06 05:26:00,
2014-02-06 00:29:00,21.6,18.9,30.26,N/A,-737280,0.0,0.0,89,0.00,,,0.02,Wunderground v.1.13,2014-02-06 05:29:00,
2014-02-06 00:32:00,22.1,19.1,30.23,West,259,0.0,2.0,88,0.00,,,0.05,Wunderground v.1.13,2014-02-06 05:32:00,
2014-02-06 00:34:00,21.6,18.9,30.26,N/A,-737280,0.0,0.0,89,0.00,,,0.02,Wunderground v.1.13,2014-02-06 05:34:00,
2014-02-06 00:38:00,22.0,19.0,30.22,West,260,0.0,2.0,88,0.00,,,0.05,Wunderground v.1.13,2014-02-06 05:38:00,
2014-02-06 00:39:00,21.5,18.8,30.27,N/A,-737280,0.0,0.0,89,0.00,,,0.02,Wunderground v.1.13,2014-02-06 05:39:00,
2014-02-06 00:44:00,22.0,19.0,30.23,West,260,0.0,2.0,88,0.00,,,0.05,Wunderground v.1.13,2014-02-06 05:44:00,
2014-02-06 00:49:00,21.9,18.9,30.23,West,260,0.0,0.0,88,0.00,,,0.05,Wunderground v.1.13,2014-02-06 05:49:00,
2014-02-06 00:54:00,21.9,19.2,30.23,West,260,0.0,0.0,89,0.00,,,0.05,Wunderground v.1.13,2014-02-06 05:54:00,
2014-02-06 00:59:00,21.5,18.8,30.27,N/A,-737280,0.0,0.0,89,0.00,,,0.02,Wunderground v.1.13,2014-02-06 05:59:00,
2014-02-06 01:00:00,21.8,19.1,30.23,West,260,1.0,1.0,89,0.00,,,0.05,Wunderground v.1.13,2014-02-06 06:00:00,
2014-02-06 01:04:00,21.5,18.8,30.27,West,270,0.0,2.0,89,0.00,,,0.02,Wunderground v.1.13,2014-02-06 06:04:00,
2014-02-06 01:05:00,21.8,19.1,30.23,West,260,0.0,0.0,89,0.00,,,0.05,Wunderground v.1.13,2014-02-06 06:05:00,
2014-02-06 01:09:00,21.4,18.7,30.27,West,270,0.0,1.0,89,0.00,,,0.02,Wunderground v.1.13,2014-02-06 06:09:00,
2014-02-06 01:11:00,21.8,19.1,30.24,West,260,0.0,0.0,89,0.00,,,0.05,Wunderground v.1.13,2014-02-06 06:11:00,
2014-02-06 01:14:00,21.4,18.7,30.27,N/A,-737280,0.0,0.0,89,0.00,,,0.02,Wunderground v.1.13,2014-02-06 06:14:00,
2014-02-06 01:16:00,21.8,19.1,30.24,West,260,0.0,0.0,89,0.00,,,0.05,Wunderground v.1.13,2014-02-06 06:16:00,
2014-02-06 01:19:00,21.3,18.6,30.27,N/A,-737280,0.0,0.0,89,0.00,,,0.02,Wunderground v.1.13,2014-02-06 06:19:00,
2014-02-06 01:22:00,21.8,19.1,30.24,West,260,0.0,0.0,89,0.00,,,0.05,Wunderground v.1.13,2014-02-06 06:22:00,
2014-02-06 01:24:00,21.3,18.6,30.28,N/A,-737280,0.0,0.0,89,0.00,,,0.02,Wunderground v.1.13,2014-02-06 06:24:00,
2014-02-06 01:28:00,21.7,19.0,30.24,West,260,0.0,0.0,89,0.00,,,0.05,Wunderground v.1.13,2014-02-06 06:28:00,
2014-02-06 01:29:00,21.2,18.5,30.28,N/A,-737280,0.0,0.0,89,0.00,,,0.02,Wunderground v.1.13,2014-02-06 06:29:00,
2014-02-06 01:34:00,21.7,19.0,30.25,West,260,0.0,0.0,89,0.00,,,0.05,Wunderground v.1.13,2014-02-06 06:34:00,
2014-02-06 01:39:00,21.1,18.4,30.29,West,270,1.0,2.0,89,0.00,,,0.02,Wunderground v.1.13,2014-02-06 06:39:00,
2014-02-06 01:40:00,21.7,19.0,30.24,West,260,0.0,0.0,89,0.00,,,0.05,Wunderground v.1.13,2014-02-06 06:40:00,
2014-02-06 01:44:00,21.1,18.4,30.29,West,270,1.0,2.0,89,0.00,,,0.02,Wunderground v.1.13,2014-02-06 06:44:00,
2014-02-06 01:45:00,21.7,19.0,30.24,West,260,0.0,0.0,89,0.00,,,0.05,Wunderground v.1.13,2014-02-06 06:45:00,
2014-02-06 01:49:00,21.0,18.3,30.29,N/A,-737280,0.0,0.0,89,0.00,,,0.02,Wunderground v.1.13,2014-02-06 06:49:00,
2014-02-06 01:51:00,21.6,18.9,30.25,West,260,0.0,0.0,89,0.00,,,0.05,Wunderground v.1.13,2014-02-06 06:51:00,
2014-02-06 01:54:00,20.9,18.2,30.29,N/A,-737280,0.0,0.0,89,0.00,,,0.02,Wunderground v.1.13,2014-02-06 06:54:00,
2014-02-06 01:57:00,21.6,18.9,30.25,West,260,0.0,0.0,89,0.00,,,0.05,Wunderground v.1.13,2014-02-06 06:57:00,
2014-02-06 01:59:00,20.9,18.2,30.30,N/A,-737280,0.0,0.0,89,0.00,,,0.02,Wunderground v.1.13,2014-02-06 06:59:00,
2014-02-06 02:02:00,21.6,18.9,30.25,West,260,0.0,0.0,89,0.00,,,0.05,Wunderground v.1.13,2014-02-06 07:02:00,
2014-02-06 02:04:00,20.8,18.1,30.29,West,270,0.0,2.0,89,0.00,,,0.02,Wunderground v.1.13,2014-02-06 07:04:00,
2014-02-06 02:07:00,21.6,18.9,30.25,West,260,0.0,0.0,89,0.00,,,0.05,Wunderground v.1.13,2014-02-06 07:07:00,
2014-02-06 02:09:00,20.8,18.1,30.29,N/A,-737280,0.0,0.0,89,0.00,,,0.02,Wunderground v.1.13,2014-02-06 07:09:00,
2014-02-06 02:12:00,21.6,18.9,30.25,West,260,0.0,0.0,89,0.00,,,0.05,Wunderground v.1.13,2014-02-06 07:12:00,
2014-02-06 02:14:00,20.7,18.0,30.29,N/A,-737280,0.0,0.0,89,0.00,,,0.02,Wunderground v.1.13,2014-02-06 07:14:00,
2014-02-06 02:17:00,21.5,18.8,30.26,West,260,0.0,2.0,89,0.00,,,0.05,Wunderground v.1.13,2014-02-06 07:17:00,
2014-02-06 02:19:00,20.7,18.0,30.30,N/A,-737280,0.0,0.0,89,0.00,,,0.02,Wunderground v.1.13,2014-02-06 07:19:00,
2014-02-06 02:22:00,21.5,18.8,30.26,West,260,0.0,0.0,89,0.00,,,0.05,Wunderground v.1.13,2014-02-06 07:22:00,
2014-02-06 02:24:00,20.6,17.9,30.29,N/A,-737280,0.0,0.0,89,0.00,,,0.02,Wunderground v.1.13,2014-02-06 07:24:00,
2014-02-06 02:27:00,21.6,18.9,30.25,West,260,0.0,0.0,89,0.00,,,0.05,Wunderground v.1.13,2014-02-06 07:27:00,
2014-02-06 02:29:00,20.6,17.6,30.29,West,270,1.0,3.0,88,0.00,,,0.02,Wunderground v.1.13,2014-02-06 07:29:00,
2014-02-06 02:32:00,21.6,18.9,30.26,West,260,0.0,0.0,89,0.00,,,0.05,Wunderground v.1.13,2014-02-06 07:32:00,
2014-02-06 02:34:00,20.5,17.5,30.30,N/A,-737280,0.0,0.0,88,0.00,,,0.02,Wunderground v.1.13,2014-02-06 07:34:00,
2014-02-06 02:37:00,21.6,18.9,30.26,West,260,0.0,0.0,89,0.00,,,0.05,Wunderground v.1.13,2014-02-06 07:37:00,
2014-02-06 02:39:00,20.5,17.5,30.31,N/A,-737280,0.0,0.0,88,0.00,,,0.02,Wunderground v.1.13,2014-02-06 07:39:00,
2014-02-06 02:42:00,21.6,18.9,30.26,West,260,0.0,0.0,89,0.00,,,0.05,Wunderground v.1.13,2014-02-06 07:42:00,
2014-02-06 02:44:00,20.5,17.5,30.31,N/A,-737280,0.0,0.0,88,0.00,,,0.02,Wunderground v.1.13,2014-02-06 07:44:00,
2014-02-06 02:47:00,21.6,18.9,30.26,West,260,0.0,0.0,89,0.00,,,0.05,Wunderground v.1.13,2014-02-06 07:47:00,
2014-02-06 02:49:00,20.4,17.4,30.31,West,270,1.0,2.0,88,0.00,,,0.02,Wunderground v.1.13,2014-02-06 07:49:00,
2014-02-06 02:52:00,21.6,18.9,30.26,West,260,0.0,2.0,89,0.00,,,0.00,Wunderground v.1.13,2014-02-06 07:52:00,
2014-02-06 02:54:00,20.4,17.4,30.31,N/A,-737280,0.0,0.0,88,0.00,,,0.02,Wunderground v.1.13,2014-02-06 07:54:00,
2014-02-06 02:57:00,21.6,18.9,30.26,West,260,0.0,0.0,89,0.00,,,0.00,Wunderground v.1.13,2014-02-06 07:57:00,
2014-02-06 02:59:00,20.4,17.4,30.31,N/A,-737280,0.0,0.0,88,0.00,,,0.02,Wunderground v.1.13,2014-02-06 07:59:00,
2014-02-06 03:02:00,21.6,18.9,30.26,West,260,0.0,2.0,89,0.00,,,0.00,Wunderground v.1.13,2014-02-06 08:02:00,
2014-02-06 03:04:00,20.4,17.4,30.31,N/A,-737280,0.0,0.0,88,0.00,,,0.02,Wunderground v.1.13,2014-02-06 08:04:00,
2014-02-06 03:07:00,21.6,18.9,30.26,West,261,0.0,0.0,89,0.00,,,0.00,Wunderground v.1.13,2014-02-06 08:07:00,
2014-02-06 03:09:00,20.4,17.4,30.31,N/A,-737280,0.0,0.0,88,0.00,,,0.02,Wunderground v.1.13,2014-02-06 08:09:00,
2014-02-06 03:12:00,21.6,18.9,30.26,West,261,0.0,0.0,89,0.00,,,0.00,Wunderground v.1.13,2014-02-06 08:12:00,
2014-02-06 03:14:00,20.3,17.3,30.30,N/A,-737280,0.0,0.0,88,0.00,,,0.02,Wunderground v.1.13,2014-02-06 08:14:00,
2014-02-06 03:17:00,21.6,18.9,30.26,West,261,0.0,0.0,89,0.00,,,0.00,Wunderground v.1.13,2014-02-06 08:17:00,
2014-02-06 03:19:00,20.3,17.3,30.30,N/A,-737280,0.0,0.0,88,0.00,,,0.02,Wunderground v.1.13,2014-02-06 08:19:00,
2014-02-06 03:22:00,21.6,18.9,30.27,West,261,0.0,3.0,89,0.00,,,0.00,Wunderground v.1.13,2014-02-06 08:22:00,
2014-02-06 03:24:00,20.3,17.3,30.30,N/A,-737280,0.0,0.0,88,0.00,,,0.02,Wunderground v.1.13,2014-02-06 08:24:00,
2014-02-06 03:27:00,21.5,18.8,30.27,West,261,0.0,0.0,89,0.00,,,0.00,Wunderground v.1.13,2014-02-06 08:27:00,
2014-02-06 03:29:00,20.2,17.2,30.30,N/A,-737280,0.0,0.0,88,0.00,,,0.02,Wunderground v.1.13,2014-02-06 08:29:00,
2014-02-06 03:32:00,21.5,18.8,30.27,West,261,0.0,0.0,89,0.00,,,0.00,Wunderground v.1.13,2014-02-06 08:32:00,
2014-02-06 03:34:00,20.2,17.2,30.30,N/A,-737280,0.0,0.0,88,0.00,,,0.02,Wunderground v.1.13,2014-02-06 08:34:00,
2014-02-06 03:37:00,21.5,18.8,30.27,West,261,0.0,0.0,89,0.00,,,0.00,Wunderground v.1.13,2014-02-06 08:37:00,
2014-02-06 03:39:00,20.2,17.2,30.30,N/A,-737280,0.0,0.0,88,0.00,,,0.02,Wunderground v.1.13,2014-02-06 08:39:00,
2014-02-06 03:42:00,21.5,18.8,30.27,West,261,0.0,1.0,89,0.00,,,0.00,Wunderground v.1.13,2014-02-06 08:42:00,
2014-02-06 03:44:00,20.1,17.1,30.31,WSW,248,2.0,6.0,88,0.00,,,0.02,Wunderground v.1.13,2014-02-06 08:44:00,
2014-02-06 03:47:00,21.5,18.8,30.27,West,261,0.0,2.0,89,0.00,,,0.00,Wunderground v.1.13,2014-02-06 08:47:00,
2014-02-06 03:49:00,20.1,17.1,30.31,WSW,248,2.0,3.0,88,0.00,,,0.02,Wunderground v.1.13,2014-02-06 08:49:00,
2014-02-06 03:52:00,21.5,18.8,30.27,West,261,0.0,4.0,89,0.00,,,0.00,Wunderground v.1.13,2014-02-06 08:52:00,
2014-02-06 03:54:00,20.1,17.1,30.31,WSW,248,0.0,2.0,88,0.00,,,0.02,Wunderground v.1.13,2014-02-06 08:54:00,
2014-02-06 03:57:00,21.4,18.7,30.27,West,261,0.0,2.0,89,0.00,,,0.00,Wunderground v.1.13,2014-02-06 08:57:00,
2014-02-06 03:59:00,20.1,17.1,30.32,N/A,-737280,0.0,0.0,88,0.00,,,0.02,Wunderground v.1.13,2014-02-06 08:59:00,
2014-02-06 04:02:00,21.4,18.7,30.27,West,261,0.0,0.0,89,0.00,,,0.00,Wunderground v.1.13,2014-02-06 09:02:00,
2014-02-06 04:04:00,20.1,17.1,30.32,N/A,-737280,0.0,0.0,88,0.00,,,0.02,Wunderground v.1.13,2014-02-06 09:04:00,
2014-02-06 04:07:00,21.3,18.6,30.27,West,261,0.0,0.0,89,0.00,,,0.00,Wunderground v.1.13,2014-02-06 09:07:00,
2014-02-06 04:09:00,20.1,17.1,30.32,N/A,-737280,0.0,0.0,88,0.00,,,0.02,Wunderground v.1.13,2014-02-06 09:09:00,
2014-02-06 04:12:00,21.3,18.6,30.27,West,261,1.0,1.0,89,0.00,,,0.00,Wunderground v.1.13,2014-02-06 09:12:00,
2014-02-06 04:14:00,20.2,17.2,30.32,WSW,248,0.0,1.0,88,0.00,,,0.02,Wunderground v.1.13,2014-02-06 09:14:00,
2014-02-06 04:17:00,21.2,18.5,30.28,West,261,0.0,2.0,89,0.00,,,0.00,Wunderground v.1.13,2014-02-06 09:17:00,
2014-02-06 04:19:00,20.2,17.5,30.33,N/A,-737280,0.0,0.0,89,0.00,,,0.02,Wunderground v.1.13,2014-02-06 09:19:00,
2014-02-06 04:22:00,21.2,18.5,30.28,West,261,0.0,0.0,89,0.00,,,0.00,Wunderground v.1.13,2014-02-06 09:22:00,
2014-02-06 04:24:00,20.0,17.0,30.32,N/A,-737280,0.0,0.0,88,0.00,,,0.02,Wunderground v.1.13,2014-02-06 09:24:00,
2014-02-06 04:27:00,21.1,18.4,30.29,West,261,0.0,0.0,89,0.00,,,0.00,Wunderground v.1.13,2014-02-06 09:27:00,
2014-02-06 04:29:00,19.8,16.8,30.32,N/A,-737280,0.0,0.0,88,0.00,,,0.02,Wunderground v.1.13,2014-02-06 09:29:00,
2014-02-06 04:32:00,21.1,18.4,30.29,West,261,0.0,0.0,89,0.00,,,0.00,Wunderground v.1.13,2014-02-06 09:32:00,
2014-02-06 04:34:00,19.7,16.7,30.32,N/A,-737280,0.0,0.0,88,0.00,,,0.02,Wunderground v.1.13,2014-02-06 09:34:00,
2014-02-06 04:37:00,21.0,18.3,30.29,West,261,0.0,3.0,89,0.00,,,0.00,Wunderground v.1.13,2014-02-06 09:37:00,
2014-02-06 04:39:00,19.5,16.5,30.32,N/A,-737280,0.0,0.0,88,0.00,,,0.02,Wunderground v.1.13,2014-02-06 09:39:00,
2014-02-06 04:42:00,21.0,18.3,30.29,West,261,0.0,3.0,89,0.00,,,0.00,Wunderground v.1.13,2014-02-06 09:42:00,
2014-02-06 04:44:00,19.4,16.2,30.32,N/A,-737280,0.0,0.0,87,0.00,,,0.02,Wunderground v.1.13,2014-02-06 09:44:00,
2014-02-06 04:47:00,20.9,18.2,30.30,West,261,0.0,0.0,89,0.00,,,0.00,Wunderground v.1.13,2014-02-06 09:47:00,
2014-02-06 04:49:00,19.3,16.1,30.33,N/A,-737280,0.0,0.0,87,0.00,,,0.02,Wunderground v.1.13,2014-02-06 09:49:00,
2014-02-06 04:52:00,20.8,18.1,30.29,West,261,0.0,3.0,89,0.00,,,0.00,Wunderground v.1.13,2014-02-06 09:52:00,
2014-02-06 04:54:00,19.1,15.9,30.33,N/A,-737280,0.0,0.0,87,0.00,,,0.02,Wunderground v.1.13,2014-02-06 09:54:00,
2014-02-06 04:57:00,20.8,18.1,30.29,West,261,0.0,0.0,89,0.00,,,0.00,Wunderground v.1.13,2014-02-06 09:57:00,
2014-02-06 04:59:00,19.0,15.8,30.34,N/A,-737280,0.0,0.0,87,0.00,,,0.02,Wunderground v.1.13,2014-02-06 09:59:00,
2014-02-06 05:02:00,20.7,17.7,30.29,West,261,0.0,0.0,88,0.00,,,0.00,Wunderground v.1.13,2014-02-06 10:02:00,
2014-02-06 05:04:00,18.8,15.6,30.34,N/A,-737280,0.0,0.0,87,0.00,,,0.02,Wunderground v.1.13,2014-02-06 10:04:00,
2014-02-06 05:07:00,20.7,17.7,30.30,West,261,3.0,3.0,88,0.00,,,0.00,Wunderground v.1.13,2014-02-06 10:07:00,
2014-02-06 05:09:00,18.7,15.5,30.34,N/A,-737280,0.0,0.0,87,0.01,,,0.02,Wunderground v.1.13,2014-02-06 10:09:00,
2014-02-06 05:12:00,20.7,18.0,30.29,West,261,0.0,0.0,89,0.00,,,0.00,Wunderground v.1.13,2014-02-06 10:12:00,
2014-02-06 05:14:00,18.6,15.4,30.34,N/A,-737280,0.0,0.0,87,0.01,,,0.02,Wunderground v.1.13,2014-02-06 10:14:00,
2014-02-06 05:17:00,20.6,17.6,30.30,West,261,0.0,0.0,88,0.00,,,0.00,Wunderground v.1.13,2014-02-06 10:17:00,
2014-02-06 05:19:00,18.5,15.3,30.35,WSW,248,0.0,1.0,87,0.01,,,0.02,Wunderground v.1.13,2014-02-06 10:19:00,
2014-02-06 05:22:00,20.6,17.6,30.30,West,261,0.0,0.0,88,0.00,,,0.00,Wunderground v.1.13,2014-02-06 10:22:00,
2014-02-06 05:24:00,18.4,15.2,30.35,WSW,248,1.0,2.0,87,0.01,,,0.02,Wunderground v.1.13,2014-02-06 10:24:00,
2014-02-06 05:27:00,20.5,17.5,30.31,West,261,0.0,0.0,88,0.00,,,0.00,Wunderground v.1.13,2014-02-06 10:27:00,
2014-02-06 05:29:00,18.4,15.2,30.35,WSW,248,0.0,1.0,87,0.01,,,0.02,Wunderground v.1.13,2014-02-06 10:29:00,
2014-02-06 05:32:00,20.5,17.5,30.31,West,261,0.0,0.0,88,0.00,,,0.00,Wunderground v.1.13,2014-02-06 10:32:00,
2014-02-06 05:34:00,18.4,15.2,30.35,N/A,-737280,0.0,0.0,87,0.01,,,0.02,Wunderground v.1.13,2014-02-06 10:34:00,
2014-02-06 05:37:00,20.5,17.5,30.31,West,261,0.0,0.0,88,0.00,,,0.00,Wunderground v.1.13,2014-02-06 10:37:00,
2014-02-06 05:39:00,18.4,15.2,30.35,N/A,-737280,0.0,0.0,87,0.01,,,0.02,Wunderground v.1.13,2014-02-06 10:39:00,
2014-02-06 05:42:00,20.4,17.4,30.31,West,261,0.0,0.0,88,0.00,,,0.00,Wunderground v.1.13,2014-02-06 10:42:00,
2014-02-06 05:44:00,18.4,15.2,30.35,WSW,248,0.0,1.0,87,0.01,,,0.02,Wunderground v.1.13,2014-02-06 10:44:00,
2014-02-06 05:47:00,20.4,17.4,30.31,West,261,0.0,0.0,88,0.00,,,0.00,Wunderground v.1.13,2014-02-06 10:47:00,
2014-02-06 05:49:00,18.4,15.2,30.35,WSW,248,0.0,1.0,87,0.01,,,0.02,Wunderground v.1.13,2014-02-06 10:49:00,
2014-02-06 05:52:00,20.4,17.4,30.31,West,261,0.0,0.0,88,0.00,,,0.00,Wunderground v.1.13,2014-02-06 10:52:00,
2014-02-06 05:54:00,18.4,14.9,30.35,N/A,-737280,0.0,0.0,86,0.01,,,0.02,Wunderground v.1.13,2014-02-06 10:54:00,
2014-02-06 05:57:00,20.4,17.4,30.31,West,261,0.0,2.0,88,0.00,,,0.00,Wunderground v.1.13,2014-02-06 10:57:00,
2014-02-06 05:59:00,18.4,14.9,30.35,N/A,-737280,0.0,0.0,86,0.01,,,0.02,Wunderground v.1.13,2014-02-06 10:59:00,
2014-02-06 06:02:00,20.4,17.4,30.30,West,261,0.0,0.0,88,0.00,,,0.00,Wunderground v.1.13,2014-02-06 11:02:00,
2014-02-06 06:04:00,18.4,15.2,30.36,N/A,-737280,0.0,0.0,87,0.01,,,0.02,Wunderground v.1.13,2014-02-06 11:04:00,
2014-02-06 06:07:00,20.3,17.3,30.30,West,261,0.0,1.0,88,0.00,,,0.00,Wunderground v.1.13,2014-02-06 11:07:00,
2014-02-06 06:09:00,18.6,15.4,30.36,N/A,-737280,0.0,0.0,87,0.00,,,0.02,Wunderground v.1.13,2014-02-06 11:09:00,
2014-02-06 06:12:00,20.3,17.3,30.30,West,261,0.0,1.0,88,0.00,,,0.00,Wunderground v.1.13,2014-02-06 11:12:00,
2014-02-06 06:14:00,18.8,15.6,30.36,N/A,-737280,0.0,0.0,87,0.00,,,0.02,Wunderground v.1.13,2014-02-06 11:14:00,
2014-02-06 06:17:00,20.2,17.2,30.30,West,261,0.0,3.0,88,0.00,,,0.00,Wunderground v.1.13,2014-02-06 11:17:00,
2014-02-06 06:19:00,19.1,15.9,30.36,N/A,-737280,0.0,0.0,87,0.00,,,0.02,Wunderground v.1.13,2014-02-06 11:19:00,
2014-02-06 06:22:00,20.2,17.2,30.30,West,261,0.0,0.0,88,0.00,,,0.00,Wunderground v.1.13,2014-02-06 11:22:00,
2014-02-06 06:24:00,19.3,15.8,30.36,N/A,-737280,0.0,0.0,86,0.00,,,0.02,Wunderground v.1.13,2014-02-06 11:24:00,
2014-02-06 06:27:00,20.2,17.2,30.30,West,261,0.0,0.0,88,0.00,,,0.00,Wunderground v.1.13,2014-02-06 11:27:00,
2014-02-06 06:29:00,19.4,15.9,30.37,N/A,-737280,0.0,0.0,86,0.00,,,0.02,Wunderground v.1.13,2014-02-06 11:29:00,
2014-02-06 06:32:00,20.1,17.1,30.31,West,261,0.0,0.0,88,0.00,,,0.00,Wunderground v.1.13,2014-02-06 11:32:00,
2014-02-06 06:34:00,19.6,16.1,30.37,WSW,248,1.0,3.0,86,0.00,,,0.02,Wunderground v.1.13,2014-02-06 11:34:00,
2014-02-06 06:37:00,20.1,17.1,30.31,WSW,258,0.0,4.0,88,0.00,,,0.00,Wunderground v.1.13,2014-02-06 11:37:00,
2014-02-06 06:39:00,19.7,15.9,30.37,WSW,248,1.0,3.0,85,0.00,,,0.02,Wunderground v.1.13,2014-02-06 11:39:00,
2014-02-06 06:42:00,20.0,17.0,30.31,WSW,258,0.0,1.0,88,0.00,,,0.00,Wunderground v.1.13,2014-02-06 11:42:00,
2014-02-06 06:44:00,19.8,16.0,30.37,N/A,-737280,0.0,0.0,85,0.00,,,0.02,Wunderground v.1.13,2014-02-06 11:44:00,
2014-02-06 06:47:00,20.1,17.1,30.32,WSW,258,0.0,1.0,88,0.00,,,0.00,Wunderground v.1.13,2014-02-06 11:47:00,
2014-02-06 06:49:00,20.0,16.2,30.37,N/A,-737280,0.0,0.0,85,0.00,,,0.02,Wunderground v.1.13,2014-02-06 11:49:00,
2014-02-06 06:52:00,20.1,17.1,30.32,WSW,258,0.0,0.0,88,0.00,,,0.00,Wunderground v.1.13,2014-02-06 11:52:00,
2014-02-06 06:54:00,20.6,16.5,30.37,N/A,-737280,0.0,0.0,84,0.00,,,0.02,Wunderground v.1.13,2014-02-06 11:54:00,
2014-02-06 06:57:00,20.2,17.2,30.32,WSW,258,0.0,4.0,88,0.00,,,0.00,Wunderground v.1.13,2014-02-06 11:57:00,
2014-02-06 06:59:00,21.0,16.4,30.37,WSW,248,2.0,4.0,82,0.00,,,0.02,Wunderground v.1.13,2014-02-06 11:59:00,
2014-02-06 07:02:00,20.2,17.2,30.32,WSW,258,0.0,2.0,88,0.00,,,0.00,Wunderground v.1.13,2014-02-06 12:02:00,
2014-02-06 07:04:00,21.3,16.4,30.36,WSW,248,1.0,2.0,81,0.00,,,0.02,Wunderground v.1.13,2014-02-06 12:04:00,
2014-02-06 07:07:00,20.2,17.5,30.32,WSW,258,0.0,0.0,89,0.00,,,0.00,Wunderground v.1.13,2014-02-06 12:07:00,
2014-02-06 07:09:00,21.4,16.2,30.36,N/A,-737280,0.0,0.0,80,0.00,,,0.02,Wunderground v.1.13,2014-02-06 12:09:00,
2014-02-06 07:12:00,20.0,17.0,30.32,WSW,247,0.0,7.0,88,0.00,,,0.00,Wunderground v.1.13,2014-02-06 12:12:00,
2014-02-06 07:14:00,21.4,15.9,30.37,WSW,248,0.0,2.0,79,0.00,,,0.02,Wunderground v.1.13,2014-02-06 12:14:00,
2014-02-06 07:17:00,19.9,16.9,30.32,WSW,250,0.0,4.0,88,0.00,,,0.00,Wunderground v.1.13,2014-02-06 12:17:00,
2014-02-06 07:19:00,21.9,16.1,30.37,WSW,248,1.0,3.0,78,0.00,,,0.02,Wunderground v.1.13,2014-02-06 12:19:00,
2014-02-06 07:22:00,19.7,16.7,30.32,WSW,252,0.0,4.0,88,0.00,,,0.00,Wunderground v.1.13,2014-02-06 12:22:00,
2014-02-06 07:24:00,21.9,15.8,30.37,WSW,248,1.0,5.0,77,0.00,,,0.02,Wunderground v.1.13,2014-02-06 12:24:00,
2014-02-06 07:27:00,19.6,16.6,30.32,WSW,252,1.0,1.0,88,0.00,,,0.00,Wunderground v.1.13,2014-02-06 12:27:00,
2014-02-06 07:29:00,21.7,15.3,30.37,WSW,248,0.0,1.0,76,0.00,,,0.02,Wunderground v.1.13,2014-02-06 12:29:00,
2014-02-06 07:32:00,19.5,16.5,30.32,WSW,252,0.0,2.0,88,0.00,,,0.00,Wunderground v.1.13,2014-02-06 12:32:00,
2014-02-06 07:34:00,21.7,15.3,30.37,WSW,248,0.0,2.0,76,0.00,,,0.02,Wunderground v.1.13,2014-02-06 12:34:00,
2014-02-06 07:37:00,19.3,16.1,30.33,WSW,252,0.0,1.0,87,0.00,,,0.00,Wunderground v.1.13,2014-02-06 12:37:00,
2014-02-06 07:39:00,21.7,15.3,30.37,WSW,248,2.0,8.0,76,0.00,,,0.02,Wunderground v.1.13,2014-02-06 12:39:00,
2014-02-06 07:42:00,19.1,15.9,30.33,WSW,252,0.0,0.0,87,0.00,,,0.00,Wunderground v.1.13,2014-02-06 12:42:00,
2014-02-06 07:44:00,21.2,14.5,30.38,WSW,248,2.0,8.0,75,0.00,,,0.02,Wunderground v.1.13,2014-02-06 12:44:00,
2014-02-06 07:47:00,19.0,15.8,30.34,WSW,252,0.0,0.0,87,0.00,,,0.00,Wunderground v.1.13,2014-02-06 12:47:00,
2014-02-06 07:49:00,21.0,14.6,30.38,WSW,248,1.0,3.0,76,0.00,,,0.02,Wunderground v.1.13,2014-02-06 12:49:00,
2014-02-06 07:52:00,18.9,15.7,30.34,WSW,252,0.0,0.0,87,0.00,,,0.00,Wunderground v.1.13,2014-02-06 12:52:00,
2014-02-06 07:54:00,20.8,14.4,30.39,WSW,248,0.0,1.0,76,0.00,,,0.02,Wunderground v.1.13,2014-02-06 12:54:00,
2014-02-06 07:57:00,18.7,15.5,30.34,WSW,252,0.0,0.0,87,0.00,,,0.01,Wunderground v.1.13,2014-02-06 12:57:00,
2014-02-06 07:59:00,20.9,14.5,30.39,WSW,248,1.0,3.0,76,0.00,,,0.02,Wunderground v.1.13,2014-02-06 12:59:00,
2014-02-06 08:02:00,18.6,15.4,30.34,WSW,252,0.0,0.0,87,0.00,,,0.01,Wunderground v.1.13,2014-02-06 13:02:00,
2014-02-06 08:04:00,21.4,15.0,30.39,SW,225,0.0,1.0,76,0.00,,,0.02,Wunderground v.1.13,2014-02-06 13:04:00,
2014-02-06 08:07:00,18.5,15.3,30.35,WSW,252,0.0,1.0,87,0.00,,,0.01,Wunderground v.1.13,2014-02-06 13:07:00,
2014-02-06 08:09:00,21.9,15.2,30.39,SW,225,2.0,5.0,75,0.00,,,0.02,Wunderground v.1.13,2014-02-06 13:09:00,
2014-02-06 08:12:00,18.5,15.3,30.35,WSW,252,0.0,1.0,87,0.00,,,0.01,Wunderground v.1.13,2014-02-06 13:12:00,
2014-02-06 08:14:00,21.9,14.9,30.39,WSW,248,0.0,2.0,74,0.00,,,0.02,Wunderground v.1.13,2014-02-06 13:14:00,
2014-02-06 08:17:00,18.4,15.2,30.35,WSW,252,0.0,2.0,87,0.00,,,0.01,Wunderground v.1.13,2014-02-06 13:17:00,
2014-02-06 08:19:00,21.7,15.0,30.39,SW,225,0.0,3.0,75,0.00,,,0.02,Wunderground v.1.13,2014-02-06 13:19:00,
2014-02-06 08:22:00,18.3,15.1,30.35,WSW,252,0.0,3.0,87,0.00,,,0.01,Wunderground v.1.13,2014-02-06 13:22:00,
2014-02-06 08:24:00,21.9,15.2,30.39,SW,225,0.0,1.0,75,0.00,,,0.02,Wunderground v.1.13,2014-02-06 13:24:00,
2014-02-06 08:27:00,18.3,15.1,30.35,WSW,252,0.0,0.0,87,0.00,,,0.01,Wunderground v.1.13,2014-02-06 13:27:00,
2014-02-06 08:29:00,22.0,15.3,30.39,N/A,-737280,0.0,0.0,75,0.00,,,0.02,Wunderground v.1.13,2014-02-06 13:29:00,
2014-02-06 08:33:00,18.3,14.8,30.35,WSW,252,0.0,1.0,86,0.00,,,0.01,Wunderground v.1.13,2014-02-06 13:33:00,
2014-02-06 08:34:00,22.1,15.4,30.39,SW,225,2.0,5.0,75,0.00,,,0.02,Wunderground v.1.13,2014-02-06 13:34:00,
2014-02-06 08:38:00,18.4,15.2,30.35,WSW,252,0.0,4.0,87,0.00,,,0.01,Wunderground v.1.13,2014-02-06 13:38:00,
2014-02-06 08:39:00,22.3,15.3,30.39,WSW,248,1.0,4.0,74,0.00,,,0.02,Wunderground v.1.13,2014-02-06 13:39:00,
2014-02-06 08:43:00,18.3,14.8,30.35,WSW,252,0.0,0.0,86,0.00,,,0.01,Wunderground v.1.13,2014-02-06 13:43:00,
2014-02-06 08:44:00,22.9,15.8,30.39,SSW,203,4.0,9.0,74,0.00,,,0.02,Wunderground v.1.13,2014-02-06 13:44:00,
2014-02-06 08:48:00,18.4,14.9,30.35,WSW,252,0.0,2.0,86,0.00,,,0.01,Wunderground v.1.13,2014-02-06 13:48:00,
2014-02-06 08:49:00,23.6,16.5,30.39,SSW,203,2.0,5.0,74,0.00,,,0.02,Wunderground v.1.13,2014-02-06 13:49:00,
2014-02-06 08:53:00,18.4,14.9,30.36,WSW,252,0.0,0.0,86,0.00,,,0.01,Wunderground v.1.13,2014-02-06 13:53:00,
2014-02-06 08:54:00,24.0,16.3,30.39,SW,225,0.0,3.0,72,0.00,,,0.02,Wunderground v.1.13,2014-02-06 13:54:00,
2014-02-06 08:58:00,18.6,15.4,30.36,WSW,252,0.0,0.0,87,0.00,,,0.01,Wunderground v.1.13,2014-02-06 13:58:00,
2014-02-06 08:59:00,24.2,16.1,30.39,SW,225,0.0,2.0,71,0.00,,,0.02,Wunderground v.1.13,2014-02-06 13:59:00,
2014-02-06 09:03:00,18.8,15.6,30.36,WSW,252,0.0,0.0,87,0.00,,,0.01,Wunderground v.1.13,2014-02-06 14:03:00,
2014-02-06 09:04:00,24.0,16.0,30.39,SW,225,5.0,11.0,71,0.00,,,0.02,Wunderground v.1.13,2014-02-06 14:04:00,
2014-02-06 09:08:00,19.0,15.8,30.36,WSW,252,0.0,2.0,87,0.00,,,0.01,Wunderground v.1.13,2014-02-06 14:08:00,
2014-02-06 09:09:00,23.8,15.8,30.39,WSW,248,2.0,6.0,71,0.00,,,0.02,Wunderground v.1.13,2014-02-06 14:09:00,
2014-02-06 09:13:00,19.3,15.8,30.36,WSW,252,0.0,0.0,86,0.00,,,0.01,Wunderground v.1.13,2014-02-06 14:13:00,
2014-02-06 09:14:00,23.7,15.3,30.38,West,270,0.0,3.0,70,0.00,,,0.02,Wunderground v.1.13,2014-02-06 14:14:00,
2014-02-06 09:18:00,19.4,15.9,30.37,WSW,252,0.0,0.0,86,0.00,,,0.01,Wunderground v.1.13,2014-02-06 14:18:00,
2014-02-06 09:19:00,23.5,15.5,30.38,West,270,2.0,5.0,71,0.00,,,0.02,Wunderground v.1.13,2014-02-06 14:19:00,
2014-02-06 09:23:00,19.5,16.0,30.37,WSW,248,0.0,6.0,86,0.00,,,0.01,Wunderground v.1.13,2014-02-06 14:23:00,
2014-02-06 09:24:00,23.3,15.0,30.37,West,270,0.0,3.0,70,0.00,,,0.02,Wunderground v.1.13,2014-02-06 14:24:00,
2014-02-06 09:28:00,19.7,15.9,30.37,WSW,248,2.0,2.0,85,0.00,,,0.01,Wunderground v.1.13,2014-02-06 14:28:00,
2014-02-06 09:29:00,22.9,14.6,30.36,West,270,0.0,1.0,70,0.00,,,0.02,Wunderground v.1.13,2014-02-06 14:29:00,
2014-02-06 09:33:00,19.8,16.0,30.37,WSW,248,0.0,3.0,85,0.00,,,0.01,Wunderground v.1.13,2014-02-06 14:33:00,
2014-02-06 09:34:00,23.4,15.4,30.36,WSW,248,3.0,6.0,71,0.00,,,0.02,Wunderground v.1.13,2014-02-06 14:34:00,
2014-02-06 09:38:00,20.0,16.2,30.37,WSW,247,0.0,5.0,85,0.00,,,0.01,Wunderground v.1.13,2014-02-06 14:38:00,
2014-02-06 09:39:00,24.0,15.3,30.35,N/A,-737280,0.0,0.0,69,0.00,,,0.02,Wunderground v.1.13,2014-02-06 14:39:00,
2014-02-06 09:43:00,20.5,16.4,30.37,WSW,247,0.0,2.0,84,0.00,,,0.01,Wunderground v.1.13,2014-02-06 14:43:00,
2014-02-06 09:44:00,24.5,15.8,30.35,SW,225,0.0,2.0,69,0.00,,,0.02,Wunderground v.1.13,2014-02-06 14:44:00,
2014-02-06 09:48:00,20.9,16.5,30.37,WSW,245,1.0,5.0,83,0.00,,,0.01,Wunderground v.1.13,2014-02-06 14:48:00,
2014-02-06 09:49:00,24.8,15.4,30.35,WSW,248,2.0,9.0,67,0.00,,,0.02,Wunderground v.1.13,2014-02-06 14:49:00,
2014-02-06 09:53:00,21.3,16.7,30.36,WSW,245,0.0,4.0,82,0.00,,,0.01,Wunderground v.1.13,2014-02-06 14:53:00,
2014-02-06 09:54:00,25.2,15.8,30.34,WSW,248,4.0,9.0,67,0.00,,,0.02,Wunderground v.1.13,2014-02-06 14:54:00,
2014-02-06 09:58:00,21.4,16.2,30.36,WSW,244,0.0,4.0,80,0.00,,,0.01,Wunderground v.1.13,2014-02-06 14:58:00,
2014-02-06 09:59:00,25.6,15.5,30.34,WSW,248,3.0,10.0,65,0.00,,,0.02,Wunderground v.1.13,2014-02-06 14:59:00,
2014-02-06 10:03:00,21.4,15.9,30.37,WSW,244,0.0,4.0,79,0.00,,,0.01,Wunderground v.1.13,2014-02-06 15:03:00,
2014-02-06 10:04:00,25.8,15.3,30.34,WSW,248,3.0,6.0,64,0.00,,,0.02,Wunderground v.1.13,2014-02-06 15:04:00,
2014-02-06 10:08:00,21.8,16.0,30.37,WSW,244,1.0,2.0,78,0.00,,,0.01,Wunderground v.1.13,2014-02-06 15:08:00,
2014-02-06 10:09:00,26.0,15.1,30.34,WSW,248,3.0,6.0,63,0.00,,,0.02,Wunderground v.1.13,2014-02-06 15:09:00,
2014-02-06 10:13:00,21.9,15.8,30.37,WSW,244,1.0,1.0,77,0.00,,,0.01,Wunderground v.1.13,2014-02-06 15:13:00,
2014-02-06 10:14:00,25.9,15.4,30.34,SW,225,3.0,9.0,64,0.00,,,0.02,Wunderground v.1.13,2014-02-06 15:14:00,
2014-02-06 10:18:00,21.7,15.3,30.37,WSW,244,0.0,2.0,76,0.00,,,0.01,Wunderground v.1.13,2014-02-06 15:18:00,
2014-02-06 10:19:00,26.1,15.2,30.33,SW,225,2.0,5.0,63,0.00,,,0.02,Wunderground v.1.13,2014-02-06 15:19:00,
2014-02-06 10:23:00,21.7,15.3,30.37,WSW,244,0.0,1.0,76,0.00,,,0.01,Wunderground v.1.13,2014-02-06 15:23:00,
2014-02-06 10:24:00,26.2,15.3,30.33,WSW,248,0.0,1.0,63,0.00,,,0.02,Wunderground v.1.13,2014-02-06 15:24:00,
2014-02-06 10:28:00,21.7,15.3,30.37,WSW,245,0.0,8.0,76,0.00,,,0.01,Wunderground v.1.13,2014-02-06 15:28:00,
2014-02-06 10:29:00,26.3,15.0,30.33,WSW,248,3.0,7.0,62,0.00,,,0.02,Wunderground v.1.13,2014-02-06 15:29:00,
2014-02-06 10:33:00,21.2,14.5,30.38,WSW,242,0.0,4.0,75,0.00,,,0.01,Wunderground v.1.13,2014-02-06 15:33:00,
2014-02-06 10:34:00,26.3,15.4,30.32,WSW,248,2.0,3.0,63,0.00,,,0.02,Wunderground v.1.13,2014-02-06 15:34:00,
2014-02-06 10:38:00,21.0,14.6,30.38,WSW,250,0.0,8.0,76,0.00,,,0.01,Wunderground v.1.13,2014-02-06 15:38:00,
2014-02-06 10:39:00,26.4,14.8,30.33,WSW,248,2.0,5.0,61,0.00,,,0.02,Wunderground v.1.13,2014-02-06 15:39:00,
2014-02-06 10:43:00,20.9,14.5,30.39,WSW,244,0.0,7.0,76,0.00,,,0.01,Wunderground v.1.13,2014-02-06 15:43:00,
2014-02-06 10:44:00,26.3,15.0,30.33,WSW,248,3.0,5.0,62,0.00,,,0.02,Wunderground v.1.13,2014-02-06 15:44:00,
2014-02-06 10:48:00,20.9,14.5,30.39,WSW,244,0.0,5.0,76,0.00,,,0.01,Wunderground v.1.13,2014-02-06 15:48:00,
2014-02-06 10:49:00,26.6,14.9,30.33,WSW,248,0.0,1.0,61,0.00,,,0.02,Wunderground v.1.13,2014-02-06 15:49:00,
2014-02-06 10:53:00,21.4,15.0,30.39,SW,233,0.0,8.0,76,0.00,,,0.01,Wunderground v.1.13,2014-02-06 15:53:00,
2014-02-06 10:54:00,26.9,15.2,30.33,N/A,-737280,0.0,0.0,61,0.00,,,0.02,Wunderground v.1.13,2014-02-06 15:54:00,
2014-02-06 10:58:00,21.8,15.4,30.39,SW,235,4.0,4.0,76,0.00,,,0.01,Wunderground v.1.13,2014-02-06 15:58:00,
2014-02-06 10:59:00,27.2,15.1,30.33,N/A,-737280,0.0,0.0,60,0.00,,,0.02,Wunderground v.1.13,2014-02-06 15:59:00,
2014-02-06 11:03:00,21.9,14.9,30.39,WSW,237,0.0,6.0,74,0.00,,,0.01,Wunderground v.1.13,2014-02-06 16:03:00,
2014-02-06 11:04:00,27.5,15.4,30.32,SW,225,2.0,5.0,60,0.00,,,0.02,Wunderground v.1.13,2014-02-06 16:04:00,
2014-02-06 11:08:00,21.8,15.1,30.39,SW,236,0.0,3.0,75,0.00,,,0.01,Wunderground v.1.13,2014-02-06 16:08:00,
2014-02-06 11:09:00,27.4,14.9,30.32,SW,225,1.0,2.0,59,0.00,,,0.02,Wunderground v.1.13,2014-02-06 16:09:00,
2014-02-06 11:13:00,21.9,15.2,30.39,SW,236,0.0,4.0,75,0.00,,,0.01,Wunderground v.1.13,2014-02-06 16:13:00,
2014-02-06 11:14:00,27.4,14.9,30.32,WSW,248,1.0,5.0,59,0.00,,,0.02,Wunderground v.1.13,2014-02-06 16:14:00,
2014-02-06 11:18:00,22.0,15.3,30.39,SW,236,0.0,3.0,75,0.00,,,0.01,Wunderground v.1.13,2014-02-06 16:18:00,
2014-02-06 11:19:00,27.0,14.9,30.32,WSW,248,2.0,6.0,60,0.00,,,0.02,Wunderground v.1.13,2014-02-06 16:19:00,
2014-02-06 11:23:00,22.1,15.4,30.39,SW,236,1.0,5.0,75,0.00,,,0.01,Wunderground v.1.13,2014-02-06 16:23:00,
2014-02-06 11:24:00,26.8,15.1,30.32,N/A,-737280,0.0,0.0,61,0.00,,,0.02,Wunderground v.1.13,2014-02-06 16:24:00,
2014-02-06 11:28:00,22.3,15.3,30.39,WSW,237,0.0,5.0,74,0.00,,,0.01,Wunderground v.1.13,2014-02-06 16:28:00,
2014-02-06 11:29:00,27.0,14.9,30.32,WSW,248,4.0,6.0,60,0.00,,,0.02,Wunderground v.1.13,2014-02-06 16:29:00,
2014-02-06 11:33:00,22.9,15.8,30.39,SSW,198,7.0,8.0,74,0.00,,,0.01,Wunderground v.1.13,2014-02-06 16:33:00,
2014-02-06 11:34:00,27.0,15.3,30.31,WSW,248,3.0,5.0,61,0.00,,,0.02,Wunderground v.1.13,2014-02-06 16:34:00,
2014-02-06 11:38:00,23.6,16.5,30.38,SSW,208,0.0,6.0,74,0.00,,,0.01,Wunderground v.1.13,2014-02-06 16:38:00,
2014-02-06 11:39:00,27.2,15.1,30.31,WSW,248,1.0,5.0,60,0.00,,,0.02,Wunderground v.1.13,2014-02-06 16:39:00,
2014-02-06 11:43:00,24.0,16.3,30.39,SW,215,3.0,6.0,72,0.00,,,0.01,Wunderground v.1.13,2014-02-06 16:43:00,
2014-02-06 11:44:00,27.2,15.1,30.31,WSW,248,1.0,5.0,60,0.00,,,0.02,Wunderground v.1.13,2014-02-06 16:44:00,
2014-02-06 11:48:00,24.2,16.1,30.39,SW,225,1.0,10.0,71,0.00,,,0.01,Wunderground v.1.13,2014-02-06 16:48:00,
2014-02-06 11:49:00,27.2,14.8,30.31,WSW,248,2.0,5.0,59,0.00,,,0.02,Wunderground v.1.13,2014-02-06 16:49:00,
2014-02-06 11:53:00,24.0,16.0,30.39,SW,225,6.0,11.0,71,0.00,,,0.01,Wunderground v.1.13,2014-02-06 16:53:00,
2014-02-06 11:54:00,27.1,15.0,30.30,WSW,248,1.0,5.0,60,0.00,,,0.02,Wunderground v.1.13,2014-02-06 16:54:00,
2014-02-06 11:58:00,23.8,15.8,30.39,WSW,242,6.0,9.0,71,0.00,,,0.01,Wunderground v.1.13,2014-02-06 16:58:00,
2014-02-06 11:59:00,27.0,14.6,30.30,WSW,248,1.0,3.0,59,0.00,,,0.02,Wunderground v.1.13,2014-02-06 16:59:00,
2014-02-06 12:03:00,23.7,15.3,30.38,West,267,3.0,4.0,70,0.00,,,0.01,Wunderground v.1.13,2014-02-06 17:03:00,
2014-02-06 12:04:00,26.9,14.9,30.29,West,270,1.0,4.0,60,0.00,,,0.02,Wunderground v.1.13,2014-02-06 17:04:00,
2014-02-06 12:08:00,23.5,15.5,30.37,West,261,1.0,7.0,71,0.00,,,0.01,Wunderground v.1.13,2014-02-06 17:08:00,
2014-02-06 12:09:00,27.1,15.0,30.29,WSW,248,1.0,6.0,60,0.00,,,0.02,Wunderground v.1.13,2014-02-06 17:09:00,
2014-02-06 12:13:00,23.3,15.0,30.37,West,259,3.0,5.0,70,0.00,,,0.01,Wunderground v.1.13,2014-02-06 17:13:00,
2014-02-06 12:14:00,27.1,15.4,30.29,West,270,2.0,4.0,61,0.00,,,0.02,Wunderground v.1.13,2014-02-06 17:14:00,
2014-02-06 12:18:00,22.9,14.6,30.36,West,259,0.0,3.0,70,0.00,,,0.01,Wunderground v.1.13,2014-02-06 17:18:00,
2014-02-06 12:19:00,27.0,14.6,30.29,N/A,-737280,0.0,0.0,59,0.01,,,0.02,Wunderground v.1.13,2014-02-06 17:19:00,
2014-02-06 12:24:00,23.4,15.4,30.36,WSW,241,3.0,9.0,71,0.00,,,0.01,Wunderground v.1.13,2014-02-06 17:24:00,
2014-02-06 12:29:00,24.0,15.3,30.35,WSW,240,0.0,7.0,69,0.00,,,0.01,Wunderground v.1.13,2014-02-06 17:29:00,
2014-02-06 12:34:00,24.5,15.8,30.35,SW,225,3.0,8.0,69,0.00,,,0.01,Wunderground v.1.13,2014-02-06 17:34:00,
2014-02-06 12:39:00,24.8,15.4,30.35,WSW,243,0.0,9.0,67,0.00,,,0.01,Wunderground v.1.13,2014-02-06 17:39:00,
2014-02-06 12:44:00,25.2,15.8,30.34,WSW,254,10.0,10.0,67,0.00,,,0.01,Wunderground v.1.13,2014-02-06 17:44:00,
2014-02-06 12:49:00,25.6,15.5,30.34,WSW,237,7.0,11.0,65,0.00,,,0.01,Wunderground v.1.13,2014-02-06 17:49:00,
2014-02-06 12:54:00,25.8,15.3,30.34,SW,235,4.0,8.0,64,0.00,,,0.01,Wunderground v.1.13,2014-02-06 17:54:00,
2014-02-06 12:59:00,25.9,15.0,30.34,WSW,242,3.0,8.0,63,0.00,,,0.01,Wunderground v.1.13,2014-02-06 17:59:00,
2014-02-06 13:04:00,25.9,15.4,30.34,SW,217,3.0,9.0,64,0.00,,,0.01,Wunderground v.1.13,2014-02-06 18:04:00,
2014-02-06 13:09:00,26.1,15.2,30.33,SW,224,6.0,9.0,63,0.00,,,0.01,Wunderground v.1.13,2014-02-06 18:09:00,
2014-02-06 13:14:00,26.2,15.3,30.33,WSW,238,4.0,9.0,63,0.00,,,0.01,Wunderground v.1.13,2014-02-06 18:14:00,
2014-02-06 13:19:00,26.3,15.0,30.32,WSW,242,0.0,7.0,62,0.00,,,0.01,Wunderground v.1.13,2014-02-06 18:19:00,
2014-02-06 13:24:00,26.3,15.4,30.32,SW,236,2.0,9.0,63,0.00,,,0.01,Wunderground v.1.13,2014-02-06 18:24:00,
2014-02-06 13:29:00,26.4,14.8,30.33,SW,236,4.0,9.0,61,0.00,,,0.01,Wunderground v.1.13,2014-02-06 18:29:00,
2014-02-06 13:34:00,26.4,15.1,30.33,WSW,240,0.0,9.0,62,0.00,,,0.01,Wunderground v.1.13,2014-02-06 18:34:00,
2014-02-06 13:39:00,26.6,14.9,30.33,WSW,238,0.0,4.0,61,0.00,,,0.01,Wunderground v.1.13,2014-02-06 18:39:00,
2014-02-06 13:44:00,26.9,15.2,30.33,WSW,238,0.0,4.0,61,0.00,,,0.01,Wunderground v.1.13,2014-02-06 18:44:00,
2014-02-06 13:49:00,27.2,15.1,30.32,SW,226,3.0,8.0,60,0.00,,,0.01,Wunderground v.1.13,2014-02-06 18:49:00,
2014-02-06 13:54:00,27.6,15.5,30.32,SW,228,6.0,6.0,60,0.00,,,0.01,Wunderground v.1.13,2014-02-06 18:54:00,
2014-02-06 13:59:00,27.4,14.9,30.32,SW,227,4.0,7.0,59,0.00,,,0.01,Wunderground v.1.13,2014-02-06 18:59:00,
2014-02-06 14:04:00,27.4,14.9,30.32,WSW,243,1.0,7.0,59,0.00,,,0.01,Wunderground v.1.13,2014-02-06 19:04:00,
2014-02-06 14:09:00,27.0,14.9,30.31,WSW,251,0.0,7.0,60,0.00,,,0.01,Wunderground v.1.13,2014-02-06 19:09:00,
2014-02-06 14:14:00,26.9,15.2,30.32,WSW,255,1.0,7.0,61,0.00,,,0.01,Wunderground v.1.13,2014-02-06 19:14:00,
2014-02-06 14:19:00,27.0,14.9,30.31,WSW,246,2.0,10.0,60,0.00,,,0.01,Wunderground v.1.13,2014-02-06 19:19:00,
2014-02-06 14:24:00,27.0,14.9,30.31,SW,234,0.0,9.0,60,0.00,,,0.01,Wunderground v.1.13,2014-02-06 19:24:00,
2014-02-06 14:29:00,27.3,15.2,30.31,WSW,242,0.0,9.0,60,0.00,,,0.01,Wunderground v.1.13,2014-02-06 19:29:00,
2014-02-06 14:34:00,27.2,15.1,30.31,WSW,247,0.0,7.0,60,0.00,,,0.01,Wunderground v.1.13,2014-02-06 19:34:00,
2014-02-06 14:39:00,27.1,14.7,30.31,WSW,249,3.0,8.0,59,0.00,,,0.01,Wunderground v.1.13,2014-02-06 19:39:00,
2014-02-06 14:44:00,27.0,14.6,30.30,WSW,244,0.0,7.0,59,0.00,,,0.01,Wunderground v.1.13,2014-02-06 19:44:00,
2014-02-06 14:49:00,27.0,14.6,30.29,WSW,254,1.0,7.0,59,0.00,,,0.01,Wunderground v.1.13,2014-02-06 19:49:00,
2014-02-06 14:54:00,27.0,14.9,30.29,West,259,0.0,7.0,60,0.00,,,0.01,Wunderground v.1.13,2014-02-06 19:54:00,
2014-02-06 14:59:00,27.1,14.7,30.29,WSW,254,0.0,6.0,59,0.00,,,0.01,Wunderground v.1.13,2014-02-06 19:59:00,
2014-02-06 15:04:00,27.1,15.0,30.30,West,262,0.0,4.0,60,0.00,,,0.01,Wunderground v.1.13,2014-02-06 20:04:00,
2014-02-06 15:09:00,27.0,14.6,30.30,West,262,0.0,3.0,59,0.00,,,0.02,Wunderground v.1.13,2014-02-06 20:09:00,
2014-02-06 15:14:00,26.9,14.9,30.30,West,262,2.0,3.0,60,0.00,,,0.02,Wunderground v.1.13,2014-02-06 20:14:00,
2014-02-06 15:19:00,26.9,14.5,30.29,WSW,251,2.0,6.0,59,0.00,,,0.02,Wunderground v.1.13,2014-02-06 20:19:00,
2014-02-06 15:24:00,27.1,14.7,30.30,WSW,250,1.0,9.0,59,0.00,,,0.02,Wunderground v.1.13,2014-02-06 20:24:00,
2014-02-06 15:29:00,27.4,15.3,30.30,WSW,250,3.0,5.0,60,0.00,,,0.02,Wunderground v.1.13,2014-02-06 20:29:00,
2014-02-06 15:34:00,27.4,14.5,30.30,WSW,247,1.0,5.0,58,0.00,,,0.02,Wunderground v.1.13,2014-02-06 20:34:00,
2014-02-06 15:39:00,27.3,14.8,30.30,WSW,242,1.0,6.0,59,0.00,,,0.02,Wunderground v.1.13,2014-02-06 20:39:00,
2014-02-06 15:44:00,27.1,14.7,30.30,WSW,242,0.0,4.0,59,0.00,,,0.02,Wunderground v.1.13,2014-02-06 20:44:00,
2014-02-06 15:49:00,26.6,14.6,30.30,WSW,240,0.0,5.0,60,0.00,,,0.02,Wunderground v.1.13,2014-02-06 20:49:00,
2014-02-06 15:54:00,26.5,14.5,30.29,SW,230,3.0,6.0,60,0.00,,,0.02,Wunderground v.1.13,2014-02-06 20:54:00,
2014-02-06 15:59:00,26.6,15.3,30.29,SW,234,0.0,6.0,62,0.00,,,0.02,Wunderground v.1.13,2014-02-06 20:59:00,
2014-02-06 16:04:00,26.4,14.8,30.29,SW,233,0.0,8.0,61,0.00,,,0.02,Wunderground v.1.13,2014-02-06 21:04:00,
2014-02-06 16:09:00,26.3,14.7,30.30,SW,233,0.0,4.0,61,0.00,,,0.02,Wunderground v.1.13,2014-02-06 21:09:00,
2014-02-06 16:14:00,26.2,14.9,30.30,WSW,237,0.0,7.0,62,0.00,,,0.02,Wunderground v.1.13,2014-02-06 21:14:00,
2014-02-06 16:19:00,26.2,14.9,30.30,SW,236,0.0,5.0,62,0.00,,,0.02,Wunderground v.1.13,2014-02-06 21:19:00,
2014-02-06 16:24:00,26.1,14.8,30.30,WSW,238,0.0,6.0,62,0.00,,,0.02,Wunderground v.1.13,2014-02-06 21:24:00,
2014-02-06 16:29:00,26.1,14.8,30.31,SW,223,0.0,8.0,62,0.00,,,0.02,Wunderground v.1.13,2014-02-06 21:29:00,
2014-02-06 16:34:00,26.1,15.2,30.31,SW,223,4.0,4.0,63,0.00,,,0.02,Wunderground v.1.13,2014-02-06 21:34:00,
2014-02-06 16:39:00,26.1,15.2,30.31,SW,222,0.0,5.0,63,0.00,,,0.02,Wunderground v.1.13,2014-02-06 21:39:00,
2014-02-06 16:44:00,26.0,15.1,30.31,SW,231,4.0,6.0,63,0.00,,,0.02,Wunderground v.1.13,2014-02-06 21:44:00,
2014-02-06 16:49:00,25.9,15.0,30.32,SW,230,1.0,4.0,63,0.00,,,0.02,Wunderground v.1.13,2014-02-06 21:49:00,
2014-02-06 16:54:00,25.8,15.3,30.32,SW,231,0.0,4.0,64,0.00,,,0.02,Wunderground v.1.13,2014-02-06 21:54:00,
2014-02-06 16:59:00,25.8,15.3,30.32,SW,231,0.0,2.0,64,0.00,,,0.02,Wunderground v.1.13,2014-02-06 21:59:00,
2014-02-06 17:04:00,25.6,15.5,30.32,SW,232,0.0,5.0,65,0.00,,,0.02,Wunderground v.1.13,2014-02-06 22:04:00,
2014-02-06 17:09:00,25.5,15.4,30.32,SW,232,0.0,4.0,65,0.00,,,0.02,Wunderground v.1.13,2014-02-06 22:09:00,
2014-02-06 17:14:00,25.4,15.6,30.32,SW,232,0.0,6.0,66,0.00,,,0.02,Wunderground v.1.13,2014-02-06 22:14:00,
2014-02-06 17:19:00,25.3,15.5,30.32,SW,231,4.0,6.0,66,0.00,,,0.02,Wunderground v.1.13,2014-02-06 22:19:00,
2014-02-06 17:24:00,25.2,15.8,30.31,SW,231,3.0,3.0,67,0.00,,,0.02,Wunderground v.1.13,2014-02-06 22:24:00,
2014-02-06 17:29:00,25.1,15.7,30.31,SW,228,0.0,5.0,67,0.00,,,0.02,Wunderground v.1.13,2014-02-06 22:29:00,
2014-02-06 17:34:00,25.1,16.0,30.30,SW,224,0.0,6.0,68,0.00,,,0.02,Wunderground v.1.13,2014-02-06 22:34:00,
2014-02-06 17:39:00,25.0,16.3,30.30,SW,233,0.0,8.0,69,0.00,,,0.02,Wunderground v.1.13,2014-02-06 22:39:00,
2014-02-06 17:44:00,24.9,16.2,30.31,SW,233,5.0,6.0,69,0.00,,,0.02,Wunderground v.1.13,2014-02-06 22:44:00,
2014-02-06 17:49:00,24.8,16.4,30.30,SW,234,3.0,5.0,70,0.00,,,0.02,Wunderground v.1.13,2014-02-06 22:49:00,
2014-02-06 17:54:00,24.7,16.3,30.30,SW,234,0.0,5.0,70,0.00,,,0.02,Wunderground v.1.13,2014-02-06 22:54:00,
2014-02-06 17:59:00,24.6,16.5,30.30,SW,235,0.0,5.0,71,0.00,,,0.02,Wunderground v.1.13,2014-02-06 22:59:00,
2014-02-06 18:04:00,24.6,16.5,30.31,SW,235,0.0,4.0,71,0.00,,,0.02,Wunderground v.1.13,2014-02-06 23:04:00,
2014-02-06 18:09:00,24.5,16.8,30.31,SW,235,0.0,3.0,72,0.00,,,0.02,Wunderground v.1.13,2014-02-06 23:09:00,
2014-02-06 18:14:00,24.4,16.7,30.31,SW,235,0.0,2.0,72,0.00,,,0.02,Wunderground v.1.13,2014-02-06 23:14:00,
2014-02-06 18:19:00,24.4,17.0,30.31,SW,235,0.0,0.0,73,0.00,,,0.02,Wunderground v.1.13,2014-02-06 23:19:00,
2014-02-06 18:24:00,24.3,16.9,30.31,SW,235,0.0,2.0,73,0.00,,,0.02,Wunderground v.1.13,2014-02-06 23:24:00,
2014-02-06 18:29:00,24.3,17.2,30.31,SW,235,0.0,0.0,74,0.00,,,0.02,Wunderground v.1.13,2014-02-06 23:29:00,
2014-02-06 18:34:00,24.2,17.1,30.31,SW,235,0.0,0.0,74,0.00,,,0.02,Wunderground v.1.13,2014-02-06 23:34:00,
2014-02-06 18:39:00,24.1,17.0,30.31,SW,236,0.0,4.0,74,0.00,,,0.02,Wunderground v.1.13,2014-02-06 23:39:00,
2014-02-06 18:44:00,24.0,16.9,30.31,SW,236,0.0,3.0,74,0.00,,,0.02,Wunderground v.1.13,2014-02-06 23:44:00,
2014-02-06 18:49:00,23.9,16.8,30.31,SW,236,0.0,3.0,74,0.00,,,0.02,Wunderground v.1.13,2014-02-06 23:49:00,
2014-02-06 18:54:00,23.8,16.4,30.31,SW,236,0.0,6.0,73,0.00,,,0.02,Wunderground v.1.13,2014-02-06 23:54:00,
2014-02-06 18:59:00,23.7,16.3,30.31,SW,236,0.0,1.0,73,0.00,,,0.02,Wunderground v.1.13,2014-02-06 23:59:00,
2014-02-06 19:04:00,23.7,16.3,30.31,SW,236,0.0,1.0,73,0.00,,,0.02,Wunderground v.1.13,2014-02-07 00:04:00,
2014-02-06 19:09:00,23.6,16.5,30.31,SW,236,0.0,0.0,74,0.00,,,0.02,Wunderground v.1.13,2014-02-07 00:09:00,
2014-02-06 19:14:00,23.4,16.3,30.31,SW,236,0.0,2.0,74,0.00,,,0.02,Wunderground v.1.13,2014-02-07 00:14:00,
2014-02-06 19:19:00,23.2,16.1,30.31,SW,236,0.0,0.0,74,0.00,,,0.02,Wunderground v.1.13,2014-02-07 00:19:00,
2014-02-06 19:24:00,23.0,16.3,30.31,SW,236,0.0,0.0,75,0.00,,,0.02,Wunderground v.1.13,2014-02-07 00:24:00,
2014-02-06 19:29:00,22.9,16.2,30.30,SW,236,0.0,2.0,75,0.00,,,0.02,Wunderground v.1.13,2014-02-07 00:29:00,
2014-02-06 19:34:00,22.8,16.1,30.31,SW,236,0.0,3.0,75,0.00,,,0.02,Wunderground v.1.13,2014-02-07 00:34:00,
2014-02-06 19:39:00,22.6,16.2,30.31,SW,236,0.0,0.0,76,0.00,,,0.02,Wunderground v.1.13,2014-02-07 00:39:00,
2014-02-06 19:44:00,22.6,16.2,30.31,SW,236,0.0,1.0,76,0.00,,,0.02,Wunderground v.1.13,2014-02-07 00:44:00,
2014-02-06 19:49:00,22.5,16.4,30.31,SW,236,0.0,0.0,77,0.00,,,0.02,Wunderground v.1.13,2014-02-07 00:49:00,
2014-02-06 19:54:00,22.5,16.4,30.32,SW,236,0.0,1.0,77,0.00,,,0.02,Wunderground v.1.13,2014-02-07 00:54:00,
2014-02-06 19:59:00,22.4,18.3,30.33,WSW,248,2.0,5.0,84,0.00,,,0.02,Wunderground v.1.13,2014-02-07 00:59:00,
2014-02-06 20:00:00,22.4,16.3,30.32,SW,236,0.0,0.0,77,0.00,,,0.02,Wunderground v.1.13,2014-02-07 01:00:00,
2014-02-06 20:04:00,22.4,18.3,30.33,WSW,248,0.0,2.0,84,0.00,,,0.02,Wunderground v.1.13,2014-02-07 01:04:00,
2014-02-06 20:05:00,22.4,16.3,30.32,SW,236,1.0,2.0,77,0.00,,,0.02,Wunderground v.1.13,2014-02-07 01:05:00,
2014-02-06 20:09:00,22.4,18.3,30.32,NW,315,0.0,1.0,84,0.00,,,0.02,Wunderground v.1.13,2014-02-07 01:09:00,
2014-02-06 20:10:00,22.4,16.6,30.32,SW,236,0.0,0.0,78,0.00,,,0.02,Wunderground v.1.13,2014-02-07 01:10:00,
2014-02-06 20:14:00,22.4,18.3,30.32,WSW,248,1.0,4.0,84,0.00,,,0.02,Wunderground v.1.13,2014-02-07 01:14:00,
2014-02-06 20:15:00,22.4,16.6,30.32,SW,236,0.0,0.0,78,0.00,,,0.02,Wunderground v.1.13,2014-02-07 01:15:00,
2014-02-06 20:19:00,22.3,18.2,30.32,WSW,248,0.0,1.0,84,0.00,,,0.02,Wunderground v.1.13,2014-02-07 01:19:00,
2014-02-06 20:20:00,22.3,16.5,30.32,SW,236,0.0,0.0,78,0.00,,,0.02,Wunderground v.1.13,2014-02-07 01:20:00,
2014-02-06 20:24:00,22.3,18.2,30.32,West,270,2.0,4.0,84,0.00,,,0.02,Wunderground v.1.13,2014-02-07 01:24:00,
2014-02-06 20:25:00,22.3,16.5,30.32,SW,236,0.0,0.0,78,0.00,,,0.02,Wunderground v.1.13,2014-02-07 01:25:00,
2014-02-06 20:29:00,22.3,18.2,30.32,SW,225,0.0,1.0,84,0.00,,,0.02,Wunderground v.1.13,2014-02-07 01:29:00,
2014-02-06 20:30:00,22.4,16.9,30.31,SW,236,0.0,0.0,79,0.00,,,0.02,Wunderground v.1.13,2014-02-07 01:30:00,
2014-02-06 20:34:00,22.2,18.1,30.32,N/A,-737280,0.0,0.0,84,0.00,,,0.02,Wunderground v.1.13,2014-02-07 01:34:00,
2014-02-06 20:35:00,22.4,16.9,30.32,SW,236,0.0,0.0,79,0.00,,,0.02,Wunderground v.1.13,2014-02-07 01:35:00,
2014-02-06 20:39:00,22.2,18.1,30.32,N/A,-737280,0.0,0.0,84,0.00,,,0.02,Wunderground v.1.13,2014-02-07 01:39:00,
2014-02-06 20:40:00,22.3,16.8,30.32,SW,236,0.0,0.0,79,0.00,,,0.02,Wunderground v.1.13,2014-02-07 01:40:00,
2014-02-06 20:44:00,22.2,18.1,30.31,N/A,-737280,0.0,0.0,84,0.00,,,0.02,Wunderground v.1.13,2014-02-07 01:44:00,
2014-02-06 20:45:00,22.3,17.1,30.31,SW,236,0.0,0.0,80,0.00,,,0.02,Wunderground v.1.13,2014-02-07 01:45:00,
2014-02-06 20:49:00,22.2,17.8,30.31,West,270,0.0,2.0,83,0.00,,,0.02,Wunderground v.1.13,2014-02-07 01:49:00,
2014-02-06 20:50:00,22.3,17.1,30.32,SW,236,0.0,0.0,80,0.00,,,0.02,Wunderground v.1.13,2014-02-07 01:50:00,
2014-02-06 20:54:00,22.2,17.8,30.31,N/A,-737280,0.0,0.0,83,0.00,,,0.02,Wunderground v.1.13,2014-02-07 01:54:00,
2014-02-06 20:55:00,22.3,17.1,30.32,SW,236,0.0,0.0,80,0.00,,,0.02,Wunderground v.1.13,2014-02-07 01:55:00,
2014-02-06 20:59:00,22.2,17.8,30.31,West,270,0.0,2.0,83,0.00,,,0.02,Wunderground v.1.13,2014-02-07 01:59:00,
2014-02-06 21:00:00,22.3,17.1,30.32,SW,236,0.0,0.0,80,0.00,,,0.02,Wunderground v.1.13,2014-02-07 02:00:00,
2014-02-06 21:04:00,22.2,17.8,30.31,SSW,203,4.0,7.0,83,0.00,,,0.02,Wunderground v.1.13,2014-02-07 02:04:00,
2014-02-06 21:05:00,22.3,17.4,30.32,SW,236,0.0,0.0,81,0.00,,,0.02,Wunderground v.1.13,2014-02-07 02:05:00,
2014-02-06 21:09:00,22.2,17.8,30.31,SW,225,1.0,4.0,83,0.00,,,0.02,Wunderground v.1.13,2014-02-07 02:09:00,
2014-02-06 21:10:00,22.3,17.4,30.32,SW,236,0.0,0.0,81,0.00,,,0.02,Wunderground v.1.13,2014-02-07 02:10:00,
2014-02-06 21:14:00,22.3,17.9,30.31,SW,225,0.0,2.0,83,0.00,,,0.02,Wunderground v.1.13,2014-02-07 02:14:00,
2014-02-06 21:15:00,22.3,17.4,30.32,SW,236,0.0,0.0,81,0.00,,,0.02,Wunderground v.1.13,2014-02-07 02:15:00,
2014-02-06 21:19:00,22.3,17.9,30.30,SW,225,0.0,2.0,83,0.00,,,0.02,Wunderground v.1.13,2014-02-07 02:19:00,
2014-02-06 21:20:00,22.3,17.4,30.32,WSW,238,0.0,0.0,81,0.00,,,0.02,Wunderground v.1.13,2014-02-07 02:20:00,
2014-02-06 21:24:00,22.4,18.0,30.30,SW,225,0.0,1.0,83,0.00,,,0.02,Wunderground v.1.13,2014-02-07 02:24:00,
2014-02-06 21:25:00,22.3,17.6,30.33,WSW,238,0.0,1.0,82,0.00,,,0.02,Wunderground v.1.13,2014-02-07 02:25:00,
2014-02-06 21:29:00,22.4,18.0,30.30,SW,225,1.0,3.0,83,0.00,,,0.02,Wunderground v.1.13,2014-02-07 02:29:00,
2014-02-06 21:30:00,22.4,17.7,30.32,WSW,238,0.0,0.0,82,0.00,,,0.02,Wunderground v.1.13,2014-02-07 02:30:00,
2014-02-06 21:34:00,22.5,18.1,30.30,SW,225,1.0,5.0,83,0.00,,,0.02,Wunderground v.1.13,2014-02-07 02:34:00,
2014-02-06 21:35:00,22.4,17.7,30.33,WSW,238,0.0,0.0,82,0.00,,,0.02,Wunderground v.1.13,2014-02-07 02:35:00,
2014-02-06 21:39:00,22.6,18.2,30.30,N/A,-737280,0.0,0.0,83,0.00,,,0.02,Wunderground v.1.13,2014-02-07 02:39:00,
2014-02-06 21:40:00,22.4,17.7,30.33,WSW,238,0.0,0.0,82,0.00,,,0.02,Wunderground v.1.13,2014-02-07 02:40:00,
2014-02-06 21:44:00,22.7,18.3,30.29,SSW,203,3.0,6.0,83,0.00,,,0.02,Wunderground v.1.13,2014-02-07 02:44:00,
2014-02-06 21:45:00,22.4,17.7,30.33,WSW,238,1.0,1.0,82,0.00,,,0.02,Wunderground v.1.13,2014-02-07 02:45:00,
2014-02-06 21:49:00,22.7,18.3,30.30,WSW,248,6.0,11.0,83,0.00,,,0.02,Wunderground v.1.13,2014-02-07 02:49:00,
2014-02-06 21:50:00,22.4,17.7,30.33,WSW,238,0.0,0.0,82,0.00,,,0.02,Wunderground v.1.13,2014-02-07 02:50:00,
2014-02-06 21:54:00,22.7,18.3,30.29,WSW,248,2.0,6.0,83,0.00,,,0.02,Wunderground v.1.13,2014-02-07 02:54:00,
2014-02-06 21:55:00,22.4,17.7,30.33,WSW,238,0.0,0.0,82,0.00,,,0.02,Wunderground v.1.13,2014-02-07 02:55:00,
2014-02-06 21:59:00,22.8,18.4,30.29,WSW,248,2.0,4.0,83,0.00,,,0.02,Wunderground v.1.13,2014-02-07 02:59:00,
2014-02-06 22:00:00,22.4,17.7,30.33,WSW,238,0.0,0.0,82,0.00,,,0.02,Wunderground v.1.13,2014-02-07 03:00:00,
2014-02-06 22:04:00,22.8,18.4,30.29,N/A,-737280,0.0,0.0,83,0.00,,,0.02,Wunderground v.1.13,2014-02-07 03:04:00,
2014-02-06 22:05:00,22.4,17.7,30.33,WSW,238,0.0,0.0,82,0.00,,,0.02,Wunderground v.1.13,2014-02-07 03:05:00,
2014-02-06 22:09:00,22.7,18.3,30.29,WSW,248,1.0,3.0,83,0.00,,,0.02,Wunderground v.1.13,2014-02-07 03:09:00,
2014-02-06 22:10:00,22.4,18.0,30.33,WSW,237,0.0,2.0,83,0.00,,,0.02,Wunderground v.1.13,2014-02-07 03:10:00,
2014-02-06 22:14:00,22.8,18.7,30.30,N/A,-737280,0.0,0.0,84,0.00,,,0.02,Wunderground v.1.13,2014-02-07 03:14:00,
2014-02-06 22:15:00,22.4,18.0,30.33,WSW,237,0.0,2.0,83,0.00,,,0.02,Wunderground v.1.13,2014-02-07 03:15:00,
2014-02-06 22:19:00,22.7,18.6,30.29,WSW,248,1.0,4.0,84,0.00,,,0.02,Wunderground v.1.13,2014-02-07 03:19:00,
2014-02-06 22:20:00,22.5,18.1,30.34,WSW,238,0.0,0.0,83,0.00,,,0.02,Wunderground v.1.13,2014-02-07 03:20:00,
2014-02-06 22:24:00,22.7,18.6,30.29,N/A,-737280,0.0,0.0,84,0.00,,,0.02,Wunderground v.1.13,2014-02-07 03:24:00,
2014-02-06 22:25:00,22.5,18.1,30.33,SW,235,0.0,1.0,83,0.00,,,0.02,Wunderground v.1.13,2014-02-07 03:25:00,
2014-02-06 22:29:00,22.7,18.6,30.29,WSW,248,0.0,2.0,84,0.00,,,0.02,Wunderground v.1.13,2014-02-07 03:29:00,
2014-02-06 22:30:00,22.5,18.1,30.33,SW,236,2.0,4.0,83,0.00,,,0.02,Wunderground v.1.13,2014-02-07 03:30:00,
2014-02-06 22:34:00,22.6,18.5,30.29,WSW,248,2.0,6.0,84,0.00,,,0.02,Wunderground v.1.13,2014-02-07 03:34:00,
2014-02-06 22:35:00,22.5,18.1,30.33,SW,236,0.0,1.0,83,0.00,,,0.02,Wunderground v.1.13,2014-02-07 03:35:00,
2014-02-06 22:39:00,22.6,18.5,30.29,WSW,248,0.0,1.0,84,0.00,,,0.02,Wunderground v.1.13,2014-02-07 03:39:00,
2014-02-06 22:40:00,22.5,18.1,30.33,WSW,240,4.0,6.0,83,0.00,,,0.02,Wunderground v.1.13,2014-02-07 03:40:00,
2014-02-06 22:44:00,22.6,18.5,30.29,WSW,248,0.0,4.0,84,0.00,,,0.02,Wunderground v.1.13,2014-02-07 03:44:00,
2014-02-06 22:45:00,22.5,18.4,30.33,WSW,244,0.0,2.0,84,0.00,,,0.02,Wunderground v.1.13,2014-02-07 03:45:00,
2014-02-06 22:49:00,22.6,18.5,30.29,N/A,-737280,0.0,0.0,84,0.00,,,0.02,Wunderground v.1.13,2014-02-07 03:49:00,
2014-02-06 22:50:00,22.4,18.3,30.33,WSW,243,0.0,4.0,84,0.00,,,0.02,Wunderground v.1.13,2014-02-07 03:50:00,
2014-02-06 22:54:00,22.5,18.4,30.29,WSW,248,1.0,3.0,84,0.00,,,0.02,Wunderground v.1.13,2014-02-07 03:54:00,
2014-02-06 22:55:00,22.4,18.3,30.33,WSW,247,0.0,2.0,84,0.00,,,0.02,Wunderground v.1.13,2014-02-07 03:55:00,
2014-02-06 22:59:00,22.5,18.4,30.30,WNW,293,0.0,1.0,84,0.00,,,0.02,Wunderground v.1.13,2014-02-07 03:59:00,
2014-02-06 23:01:00,22.4,18.3,30.32,NW,304,1.0,3.0,84,0.00,,,0.02,Wunderground v.1.13,2014-02-07 04:01:00,
2014-02-06 23:04:00,22.4,18.3,30.29,West,270,3.0,7.0,84,0.00,,,0.02,Wunderground v.1.13,2014-02-07 04:04:00,
2014-02-06 23:06:00,22.4,18.3,30.32,WSW,250,0.0,1.0,84,0.00,,,0.02,Wunderground v.1.13,2014-02-07 04:06:00,
2014-02-06 23:09:00,22.4,18.6,30.29,West,270,0.0,2.0,85,0.00,,,0.02,Wunderground v.1.13,2014-02-07 04:09:00,
2014-02-06 23:11:00,22.3,18.2,30.32,West,273,0.0,11.0,84,0.00,,,0.02,Wunderground v.1.13,2014-02-07 04:11:00,
2014-02-06 23:14:00,22.3,18.5,30.29,West,270,0.0,1.0,85,0.00,,,0.02,Wunderground v.1.13,2014-02-07 04:14:00,
2014-02-06 23:16:00,22.3,18.2,30.32,SW,234,0.0,4.0,84,0.00,,,0.02,Wunderground v.1.13,2014-02-07 04:16:00,
2014-02-06 23:19:00,22.3,20.3,30.30,West,270,0.0,1.0,92,0.00,,,0.02,Wunderground v.1.13,2014-02-07 04:19:00,
2014-02-06 23:21:00,22.3,18.2,30.32,SW,231,0.0,5.0,84,0.00,,,0.02,Wunderground v.1.13,2014-02-07 04:21:00,
2014-02-06 23:24:00,22.2,18.4,30.30,N/A,-737280,0.0,0.0,85,0.00,,,0.02,Wunderground v.1.13,2014-02-07 04:24:00,
2014-02-06 23:26:00,22.2,18.1,30.32,WNW,296,0.0,11.0,84,0.00,,,0.02,Wunderground v.1.13,2014-02-07 04:26:00,
2014-02-06 23:29:00,22.1,18.3,30.30,WSW,248,0.0,2.0,85,0.00,,,0.02,Wunderground v.1.13,2014-02-07 04:29:00,
2014-02-06 23:31:00,22.2,18.1,30.31,WNW,290,1.0,3.0,84,0.00,,,0.02,Wunderground v.1.13,2014-02-07 04:31:00,
2014-02-06 23:34:00,22.1,18.3,30.30,N/A,-737280,0.0,0.0,85,0.00,,,0.02,Wunderground v.1.13,2014-02-07 04:34:00,
2014-02-06 23:36:00,22.2,18.1,30.31,WNW,288,1.0,4.0,84,0.00,,,0.02,Wunderground v.1.13,2014-02-07 04:36:00,
2014-02-06 23:39:00,22.1,18.3,30.30,WSW,248,2.0,5.0,85,0.00,,,0.02,Wunderground v.1.13,2014-02-07 04:39:00,
2014-02-06 23:41:00,22.2,17.8,30.31,West,276,0.0,1.0,83,0.00,,,0.02,Wunderground v.1.13,2014-02-07 04:41:00,
2014-02-06 23:44:00,22.1,18.3,30.30,WSW,248,1.0,5.0,85,0.00,,,0.02,Wunderground v.1.13,2014-02-07 04:44:00,
2014-02-06 23:46:00,22.2,17.8,30.31,West,274,0.0,1.0,83,0.00,,,0.02,Wunderground v.1.13,2014-02-07 04:46:00,
2014-02-06 23:49:00,22.0,18.2,30.30,WSW,248,1.0,2.0,85,0.00,,,0.02,Wunderground v.1.13,2014-02-07 04:49:00,
2014-02-06 23:51:00,22.2,17.8,30.31,West,273,4.0,4.0,83,0.00,,,0.02,Wunderground v.1.13,2014-02-07 04:51:00,
2014-02-06 23:54:00,22.0,18.2,30.30,WSW,248,2.0,6.0,85,0.00,,,0.02,Wunderground v.1.13,2014-02-07 04:54:00,
2014-02-06 23:56:00,22.2,17.8,30.31,SW,214,0.0,3.0,83,0.00,,,0.02,Wunderground v.1.13,2014-02-07 04:56:00,
2014-02-06 23:59:00,21.9,18.1,30.30,WSW,248,3.0,6.0,85,0.00,,,0.02,Wunderground v.1.13,2014-02-07 04:59:00,